TimeCDT,TemperatureF,Dew PointF,Humidity,Sea Level PressureIn,VisibilityMPH,Wind Direction,Wind SpeedMPH,Gust SpeedMPH,PrecipitationIn,Events,Conditions,WindDirDegrees,DateUTC
12:51 AM,75.9,64.0,67,29.97,10.0,Calm,Calm,-,N/A,,Clear,0,2013-07-02 05:51:00
1:51 AM,75.9,64.9,69,29.98,10.0,WNW,4.6,-,N/A,,Clear,290,2013-07-02 06:51:00
2:51 AM,73.0,64.0,73,29.98,10.0,West,5.8,-,N/A,,Clear,280,2013-07-02 07:51:00
3:51 AM,71.1,62.1,73,29.97,10.0,NW,5.8,-,N/A,,Clear,310,2013-07-02 08:51:00
4:51 AM,69.1,61.0,75,29.97,10.0,NW,5.8,-,N/A,,Clear,310,2013-07-02 09:51:00
5:51 AM,69.1,61.0,75,29.99,10.0,NW,6.9,-,N/A,,Clear,320,2013-07-02 10:51:00
6:51 AM,69.1,57.9,68,30.00,10.0,NNW,8.1,-,N/A,,Clear,330,2013-07-02 11:51:00
7:51 AM,73.9,57.9,57,30.01,10.0,NW,5.8,-,N/A,,Clear,320,2013-07-02 12:51:00
9:51 AM,84.0,59.0,43,30.04,10.0,North,4.6,-,N/A,,Mostly Cloudy,10,2013-07-02 14:51:00
10:51 AM,87.1,57.9,37,30.03,10.0,ENE,4.6,-,N/A,,Clear,70,2013-07-02 15:51:00
11:51 AM,91.9,55.0,29,30.02,10.0,Variable,5.8,-,N/A,,Scattered Clouds,0,2013-07-02 16:51:00
12:51 PM,93.0,53.1,26,30.01,10.0,NW,10.4,-,N/A,,Partly Cloudy,310,2013-07-02 17:51:00
1:51 PM,93.0,55.0,28,29.99,10.0,Variable,5.8,17.3,N/A,,Partly Cloudy,0,2013-07-02 18:51:00
2:51 PM,95.0,52.0,23,29.96,10.0,Variable,5.8,-,N/A,,Partly Cloudy,0,2013-07-02 19:51:00
3:51 PM,96.1,52.0,22,29.94,10.0,North,6.9,-,N/A,,Partly Cloudy,350,2013-07-02 20:51:00
4:51 PM,96.1,53.1,23,29.92,10.0,North,9.2,-,N/A,,Scattered Clouds,10,2013-07-02 21:51:00
5:51 PM,91.0,61.0,36,29.91,10.0,NE,5.8,-,N/A,,Partly Cloudy,40,2013-07-02 22:51:00
6:51 PM,90.0,62.1,39,29.92,10.0,NE,8.1,-,N/A,,Mostly Cloudy,50,2013-07-02 23:51:00
7:51 PM,88.0,57.9,36,29.93,10.0,East,4.6,-,N/A,,Scattered Clouds,100,2013-07-03 00:51:00
8:51 PM,87.1,57.0,36,29.95,10.0,South,11.5,-,N/A,,Overcast,170,2013-07-03 01:51:00
9:51 PM,82.0,62.1,51,29.96,10.0,SSE,10.4,-,N/A,,Clear,160,2013-07-03 02:51:00
10:51 PM,80.1,64.0,58,29.99,10.0,South,6.9,-,N/A,,Mostly Cloudy,180,2013-07-03 03:51:00
11:51 PM,75.9,64.9,69,29.99,10.0,SSE,5.8,-,N/A,,Partly Cloudy,160,2013-07-03 04:51:00